Regional Weather Roundup
Issued by NWS

Home | Current Version | Previous Version | Graphics & Text | Print | Product List | Glossary On
Versions: 1 2 3 4 5 6 7 8 9 10 11 12 13 14 15 16 17 18 19 20 21 22 23 24 25 26 27
000
ASUS45 KBOI 310610
RWRID

IDAHO REGIONAL WEATHER ROUNDUP
NATIONAL WEATHER SERVICE BOISE ID
1200 AM MDT WED AUG 31 2016

NOTE: "FAIR" INDICATES FEW OR NO CLOUDS BELOW 12000 FEET
WITH NO SIGNIFICANT WEATHER AND/OR OBSTRUCTIONS TO VISIBILITY

IDZ012-014-310700-
SOUTHWEST IDAHO


CITY           SKY/WX    TMP DP  RH WIND       PRES   REMARKS
BOISE          CLEAR     70  43  37 NW6       29.89S
CALDWELL       CLEAR     66  50  56 SW3       29.88S
MOUNTAIN HOME  CLEAR     66  38  35 W8        29.89S
$$

IDZ016-017-310700-
SOUTHCENTRAL IDAHO


CITY           SKY/WX    TMP DP  RH WIND       PRES   REMARKS
BURLEY         CLEAR     66  43  43 S5        29.97S
JEROME         PTCLDY    78  30  17 S8        29.98R
TWIN FALLS     PTCLDY    73  28  18 S10       29.97R
$$

IDZ019>023-310700-
SOUTHEAST IDAHO


CITY           SKY/WX    TMP DP  RH WIND       PRES   REMARKS
IDAHO FALLS    PTCLDY    55  43  63 N3        30.07S
POCATELLO      PTCLDY    65  34  31 N6        30.03S
REXBURG        PTCLDY    62  41  46 NE5       30.09S
$$

IDZ006-010-011-018-031-032-310700-
CENTRAL IDAHO MOUNTAINS


CITY           SKY/WX    TMP DP  RH WIND       PRES   REMARKS
MCCALL         CLEAR     60  38  43 CALM      30.07S
HAILEY         MOCLDY    64  36  34 NW7       30.12R
STANLEY          N/A     59  27  29 S5        30.18S
SALMON         MOCLDY   N/A N/A N/A MISG        N/A
CHALLIS        PTCLDY    65  29  25 S5        30.07R
$$

IDZ002-004-006-007-026-310700-
NORTHERN IDAHO


CITY           SKY/WX    TMP DP  RH WIND       PRES   REMARKS
LEWISTON       CLEAR     68  41  37 SE5       29.93R
LOWELL           N/A     64  53  67 NW3       29.95R
COEUR D`ALENE  PTCLDY    66  43  42 S6        29.92R
MULLAN PASS    PTCLDY    63  36  36 NW6       30.13F
$$




USA.gov is the U.S. government's official web portal to all federal, state and local government web resources and services.